Ogden, UT

10:05 AM MST on February 06, 2016 (GMT -0700)
Ogden-Hinckley

Weather History for KOGD - January, 2013

Change the Weather History Date:

Tuesday, January 29, 2013

  Actual Average Record
Temperature  
Mean Temperature 23 °F -  
Max Temperature 27 °F 36 °F 52 °F (1953)
Min Temperature 19 °F 15 °F -19 °F (1949)
Degree Days  
Heating Degree Days 42    
Moisture  
Dew Point 20 °F    
Average Humidity 87    
Maximum Humidity 100    
Minimum Humidity 74    
Precipitation  
Precipitation 0.16 in - - ()
Sea Level Pressure  
Sea Level Pressure 29.98 in    
Wind  
Wind Speed 7 mph (SSE)    
Max Wind Speed 14 mph    
Max Gust Speed -    
Visibility 3 miles    
Events Fog , Snow    
Averages and records for this station are not official NWS values.
T = Trace of Precipitation, MM = Missing Value Source: NWS Daily Summary

Daily Weather History Graph

Daily Weather History Graph

Search for Another Location

Airport or City:

Trip Planner

Search our weather history database for the weather conditions in past years. The results will help you decide how hot, cold, wet, or windy it might be!

Date:

Astronomy

Jan. 29, 2013 Rise Set
Actual Time 7:41 AM MST 5:41 PM MST
Civil Twilight 7:12 AM MST 6:10 PM MST
Nautical Twilight 6:39 AM MST 6:43 PM MST
Astronomical Twilight 6:06 AM MST 7:16 PM MST
Moon 8:43 PM MST (1/29) 8:38 AM MST (1/29)
Length of Visible Light 10h 58m
Length of Day
9h 59m
Waning Gibbous, 93% of the Moon is Illuminated
Jan 29
Waning Gibbous
Feb 3
Last Quarter
Feb 10
New
Feb 17
First Quarter
Feb 25
Full

Hourly Weather History & Observations

Time (MST) Temp. Windchill Dew Point Humidity Pressure Visibility Wind Dir Wind Speed Gust Speed Precip Events Conditions
12:17 AM 24.8 °F 17.9 °F 17.6 °F 74% 29.92 in 4.0 mi South 5.8 mph - 0.00 in Snow Light Snow
12:31 AM 24.8 °F 17.9 °F 19.4 °F 80% 29.93 in 2.0 mi South 5.8 mph - 0.00 in Snow Light Snow
12:43 AM 24.8 °F 16.9 °F 19.4 °F 80% 29.92 in 1.8 mi South 6.9 mph - 0.00 in Snow Light Snow
12:53 AM 24.1 °F 17.0 °F 19.9 °F 84% 29.99 in 1.5 mi South 5.8 mph - 0.00 in Snow Light Snow
1:03 AM 23.0 °F 15.8 °F 19.4 °F 86% 29.92 in 1.0 mi SSE 5.8 mph - 0.01 in Snow Light Snow
1:26 AM 23.0 °F 14.7 °F 21.2 °F 93% 29.91 in 1.0 mi SSE 6.9 mph - 0.02 in Snow Light Snow
1:41 AM 23.0 °F 13.9 °F 21.2 °F 93% 29.90 in 0.8 mi South 8.1 mph - 0.02 in Snow Light Snow
1:53 AM 23.0 °F 14.7 °F 21.0 °F 92% 29.97 in 0.8 mi SSE 6.9 mph - 0.03 in Snow Light Snow
2:00 AM 23.0 °F 15.8 °F 21.2 °F 93% 29.89 in 1.0 mi SSE 5.8 mph - 0.00 in Snow Light Snow
2:18 AM 23.0 °F 14.7 °F 21.2 °F 93% 29.90 in 0.8 mi SSE 6.9 mph - 0.01 in Snow Light Snow
2:25 AM 23.0 °F 13.9 °F 19.4 °F 86% 29.89 in 0.5 mi South 8.1 mph - 0.02 in Fog , Snow Snow
2:53 AM 23.0 °F 13.9 °F 19.9 °F 88% 29.96 in 0.8 mi SSE 8.1 mph - 0.04 in Snow Light Snow
3:23 AM 23.0 °F 12.4 °F 19.4 °F 86% 29.88 in 1.0 mi SSE 10.4 mph - 0.01 in Snow Light Snow
3:34 AM 23.0 °F 11.7 °F 19.4 °F 86% 29.88 in 1.0 mi SSE 11.5 mph - 0.02 in Snow Light Snow
3:53 AM 23.0 °F 13.1 °F 19.9 °F 88% 29.94 in 1.0 mi SSE 9.2 mph - 0.02 in Snow Light Snow
4:26 AM 23.0 °F 13.1 °F 19.4 °F 86% 29.86 in 0.8 mi SSE 9.2 mph - 0.01 in Snow Light Snow
4:39 AM 23.0 °F 12.4 °F 19.4 °F 86% 29.86 in 1.0 mi SSE 10.4 mph - 0.01 in Snow Light Snow
4:53 AM 23.0 °F 12.4 °F 19.9 °F 88% 29.93 in 1.0 mi South 10.4 mph - 0.01 in Snow Light Snow
4:58 AM 23.0 °F 11.7 °F 19.4 °F 86% 29.86 in 0.8 mi South 11.5 mph - 0.00 in Snow Light Snow
5:06 AM 23.0 °F 12.4 °F 19.4 °F 86% 29.86 in 1.0 mi SSE 10.4 mph - 0.00 in Snow Light Snow
5:53 AM 23.0 °F 10.6 °F 19.9 °F 88% 29.92 in 1.2 mi South 13.8 mph - 0.01 in Snow Light Snow
6:46 AM 23.0 °F 12.4 °F 19.4 °F 86% 29.85 in 1.8 mi South 10.4 mph - 0.01 in Snow Light Snow
6:53 AM 23.0 °F 11.7 °F 19.9 °F 88% 29.93 in 1.5 mi South 11.5 mph - 0.01 in Snow Light Snow
7:03 AM 23.0 °F 12.4 °F 19.4 °F 86% 29.86 in 1.2 mi South 10.4 mph - 0.00 in Snow Light Snow
7:18 AM 23.0 °F 13.9 °F 19.4 °F 86% 29.86 in 1.5 mi SSE 8.1 mph - 0.00 in Snow Light Snow
7:53 AM 23.0 °F 13.1 °F 19.9 °F 88% 29.93 in 1.0 mi SSE 9.2 mph - 0.00 in Snow Light Snow
8:00 AM 23.0 °F 12.4 °F 19.4 °F 86% 29.86 in 0.8 mi South 10.4 mph - 0.00 in Snow Light Snow
8:08 AM 23.0 °F 11.7 °F 19.4 °F 86% 29.86 in 1.2 mi South 11.5 mph - 0.00 in Snow Light Snow
8:47 AM 23.0 °F 13.1 °F 19.4 °F 86% 29.86 in 0.5 mi South 9.2 mph - 0.00 in Fog , Snow Snow
8:48 AM 23.0 °F 13.1 °F 19.9 °F 88% 29.93 in 0.5 mi South 9.2 mph - 0.00 in Fog , Snow Snow
8:55 AM 23.0 °F 13.1 °F 21.2 °F 93% 29.86 in 0.5 mi South 9.2 mph - 0.00 in Fog , Snow Snow
9:05 AM 23.0 °F 13.9 °F 19.4 °F 86% 29.86 in 0.8 mi South 8.1 mph - 0.01 in Snow Light Snow
9:37 AM 23.0 °F 13.9 °F 19.4 °F 86% 29.87 in 0.5 mi SSE 8.1 mph - 0.01 in Fog , Snow Snow
9:53 AM 24.1 °F 14.4 °F 19.9 °F 84% 29.95 in 0.5 mi South 9.2 mph - 0.02 in Fog , Snow Snow
10:25 AM 24.8 °F 14.6 °F 19.4 °F 80% 29.89 in 0.8 mi SSE 10.4 mph - 0.01 in Snow Light Snow
10:32 AM 24.8 °F 16.1 °F 21.2 °F 86% 29.89 in 0.5 mi SSE 8.1 mph - 0.01 in Fog , Snow Snow
10:45 AM 24.8 °F 14.6 °F 21.2 °F 86% 29.90 in 0.8 mi SSE 10.4 mph - 0.01 in Snow Light Snow
10:53 AM 24.1 °F 13.7 °F 21.0 °F 88% 29.97 in 1.0 mi South 10.4 mph - 0.01 in Snow Light Snow
11:01 AM 24.8 °F 15.3 °F 21.2 °F 86% 29.90 in 1.0 mi South 9.2 mph - 0.00 in Snow Light Snow
11:20 AM 24.8 °F 16.1 °F 21.2 °F 86% 29.91 in 2.0 mi South 8.1 mph - 0.00 in Snow Light Snow
11:50 AM 24.8 °F 16.9 °F 21.2 °F 86% 29.93 in 3.0 mi South 6.9 mph - 0.00 in Snow Light Snow
11:53 AM 25.0 °F 16.3 °F 21.0 °F 85% 30.00 in 3.0 mi South 8.1 mph - 0.00 in Snow Light Snow
12:00 PM 24.8 °F 14.6 °F 21.2 °F 86% 29.92 in 2.5 mi South 10.4 mph - 0.00 in Snow Light Snow
12:09 PM 24.8 °F 14.6 °F 21.2 °F 86% 29.93 in 4.0 mi South 10.4 mph - 0.00 in   Overcast
12:53 PM 26.1 °F 16.8 °F 21.9 °F 84% 30.00 in 10.0 mi South 9.2 mph - 0.00 in   Overcast
1:53 PM 27.0 °F 18.0 °F 21.9 °F 81% 30.02 in 10.0 mi South 9.2 mph - N/A   Overcast
2:53 PM 27.0 °F 18.7 °F 21.9 °F 81% 30.04 in 10.0 mi SW 8.1 mph - N/A   Mostly Cloudy
3:53 PM 27.0 °F 21.6 °F 21.9 °F 81% 30.07 in 10.0 mi SSW 4.6 mph - N/A   Overcast
4:53 PM 26.1 °F - 21.9 °F 84% 30.10 in 10.0 mi Calm Calm - N/A   Scattered Clouds
5:53 PM 21.9 °F - 18.0 °F 85% 30.15 in 7.0 mi Calm Calm - N/A   Scattered Clouds
6:53 PM 24.1 °F - 21.0 °F 88% 30.17 in 10.0 mi Calm Calm - N/A   Overcast
7:24 PM 19.4 °F 12.8 °F 19.4 °F 100% 30.09 in 1.8 mi South 4.6 mph - N/A   Scattered Clouds
7:39 PM 21.2 °F - 19.4 °F 93% 30.11 in 5.0 mi Calm Calm - N/A   Scattered Clouds
7:53 PM 21.0 °F - 18.0 °F 88% 30.21 in 5.0 mi Calm Calm - N/A   Scattered Clouds
8:31 PM 21.2 °F - 19.4 °F 93% 30.14 in 6.0 mi Calm Calm - N/A   Overcast
8:53 PM 21.9 °F 15.7 °F 19.9 °F 92% 30.24 in 7.0 mi South 4.6 mph - N/A   Overcast
9:38 PM 23.0 °F 17.0 °F 21.2 °F 93% 30.15 in 6.0 mi SSE 4.6 mph - N/A   Overcast
9:53 PM 24.1 °F 19.7 °F 21.0 °F 88% 30.23 in 4.0 mi SE 3.5 mph - 0.00 in Snow Light Snow
10:02 PM 23.0 °F - 21.2 °F 93% 30.15 in 2.5 mi Calm Calm - 0.00 in Snow Light Snow
10:13 PM 23.0 °F 17.0 °F 21.2 °F 93% 30.15 in 1.5 mi SSE 4.6 mph - 0.00 in Snow Light Snow
10:53 PM 24.1 °F 17.0 °F 21.9 °F 91% 30.23 in 2.5 mi SSE 5.8 mph - 0.01 in Snow Light Snow
11:02 PM 24.8 °F 17.9 °F 21.2 °F 86% 30.15 in 4.0 mi South 5.8 mph - 0.00 in   Overcast
11:32 PM 24.8 °F 17.9 °F 23.0 °F 93% 30.17 in 6.0 mi SSE 5.8 mph - 0.00 in   Overcast
11:53 PM 25.0 °F 19.3 °F 23.0 °F 92% 30.26 in 7.0 mi South 4.6 mph - 0.00 in   Overcast